TimeCST,TemperatureF,Dew PointF,Humidity,Sea Level PressureIn,VisibilityMPH,Wind Direction,Wind SpeedMPH,Gust SpeedMPH,PrecipitationIn,Events,Conditions,WindDirDegrees,DateUTC
2:50 AM,79,74,82,29.85,5,ESE,6.7,,,,Mostly Cloudy,120,2013-02-23 08:50:00
5:50 AM,79,74,81,29.87,5,ESE,6.7,,,,Mostly Cloudy,120,2013-02-23 11:50:00
7:05 AM,78.8,68.0,69,29.88,7.0,East,17.3,-,N/A,,Mostly Cloudy,100,2013-02-23 13:05:00
7:45 AM,80.6,68.0,65,29.88,7.0,ESE,11.5,-,N/A,,Mostly Cloudy,120,2013-02-23 13:45:00
8:43 AM,82.4,71.6,70,29.91,7.0,ESE,23.0,-,N/A,,Mostly Cloudy,120,2013-02-23 14:43:00
8:50 AM,84,74,65,29.92,6,ESE,6.7,,,,Partly Cloudy,120,2013-02-23 14:50:00
9:45 AM,82.4,71.6,70,29.91,7.0,ESE,9.2,-,N/A,,Scattered Clouds,120,2013-02-23 15:45:00
10:45 AM,82.4,71.6,70,29.91,7.0,ESE,17.3,-,N/A,,Scattered Clouds,120,2013-02-23 16:45:00
11:46 AM,82.4,71.6,70,29.90,7.0,ESE,18.4,-,N/A,,Scattered Clouds,120,2013-02-23 17:46:00
11:50 AM,88,73,52,29.91,6,ESE,8.9,,,,Scattered Clouds,120,2013-02-23 17:50:00
12:58 PM,82.4,71.6,70,29.86,7.0,ESE,13.8,-,N/A,,Scattered Clouds,120,2013-02-23 18:58:00
1:43 PM,82.4,71.6,70,29.85,7.0,SSE,16.1,-,N/A,,Scattered Clouds,150,2013-02-23 19:43:00
2:40 PM,82.4,71.6,70,29.84,7.0,East,17.3,-,N/A,,Scattered Clouds,90,2013-02-23 20:40:00
2:50 PM,89,73,51,29.84,6,ESE,8.9,,,,Partly Cloudy,120,2013-02-23 20:50:00
3:44 PM,82.4,71.6,70,29.82,7.0,East,11.5,-,N/A,,Scattered Clouds,90,2013-02-23 21:44:00
4:45 PM,82.4,71.6,70,29.82,7.0,East,11.5,-,N/A,,Scattered Clouds,100,2013-02-23 22:45:00
5:45 PM,82.4,71.6,70,29.82,7.0,East,11.5,-,N/A,,Partly Cloudy,90,2013-02-23 23:45:00
5:50 PM,82,72,65,29.83,6,ESE,8.9,,,,Partly Cloudy,120,2013-02-23 23:50:00
6:45 PM,80.6,69.8,70,29.83,7.0,East,17.3,-,N/A,,Clear,90,2013-02-24 00:45:00
8:45 PM,80,74,76,29.89,5,ESE,4.5,,,,Mostly Cloudy,110,2013-02-24 02:45:00
11:45 PM,79,74,81,29.88,5,ESE,4.5,,,,Mostly Cloudy,110,2013-02-24 05:45:00